Вернуться в каталог

ARIANE 44L DEB

АктивенHEO
NORAD 24751·DEBRIS·🇫🇷 France

Запущен Jan 15, 1991 с Guiana Space Centre

Loading…

Ближайшие Пролёты (ближайшие 24 часа)

TLE

СвежийSource: Space-Track

Эпоха: Sep 12, 2026, 23:36 UTC

1 24751U 91003K   26255.98353742  .00000011  00000-0  22429-3 0  9997
2 24751   7.8947 119.8251 6164265 281.7465  19.0335  3.61363228358108

Отслеживайте ARIANE 44L DEB в реальном времени с AllMySat

Download on the App Store